K4PAD Weather Reports


time (UTC)temp
F
wind
direction
speed
knots
gust
knots
rain 1hr
in
rain 24hr
in
rain mn
in
humidity
%
barometer
mb
20260506211445 94 256 1.7 1.7 0.00 0.00 0.00 36 1015.3
20260506210942 94 281 0.9 1.7 0.00 0.00 0.00 35 1015.3
20260506210438 94 211 1.7 1.7 0.00 0.00 0.00 35 1015.3
20260506205936 93 229 3.5 4.3 0.00 0.00 0.00 35 1015.2
20260506205432 93 231 2.6 2.6 0.00 0.00 0.00 35 1015.3
20260506204929 93 203 4.3 6.1 0.00 0.00 0.00 36 1015.5
20260506204427 93 208 3.5 4.3 0.00 0.00 0.00 36 1015.7
20260506203924 93 207 2.6 2.6 0.00 0.00 0.00 36 1015.4
20260506203421 94 121 1.7 2.6 0.00 0.00 0.00 37 1015.6
20260506202917 93 117 0.9 0.9 0.00 0.00 0.00 37 1015.7
20260506202414 94 219 3.5 4.3 0.00 0.00 0.00 38 1015.6
20260506201911 93 143 0.9 0.9 0.00 0.00 0.00 38 1015.5
20260506201408 93 219 1.7 2.6 0.00 0.00 0.00 40 1015.7
20260506200905 93 117 1.7 2.6 0.00 0.00 0.00 39 1015.9
20260506200401 93 182 4.3 7.0 0.00 0.00 0.00 38 1015.7
20260506195857 93 81 0.9 0.9 0.00 0.00 0.00 40 1015.9
20260506195355 92 234 0.9 1.7 0.00 0.00 0.00 40 1016.0
20260506194851 93 238 4.3 5.2 0.00 0.00 0.00 39 1016.3
20260506194348 93 83 0.9 0.9 0.00 0.00 0.00 40 1016.3
20260506193846 93 283 5.2 7.0 0.00 0.00 0.00 38 1016.2
20260506193342 93 195 1.7 1.7 0.00 0.00 0.00 39 1016.2
20260506192838 93 215 2.6 2.6 0.00 0.00 0.00 40 1016.4
20260506192335 92 146 0.9 1.7 0.00 0.00 0.00 40 1016.5
20260506191832 92 115 0.9 1.7 0.00 0.00 0.00 41 1016.7
20260506191329 91 245 4.3 6.1 0.00 0.00 0.00 40 1016.7
20260506190826 92 229 4.3 6.1 0.00 0.00 0.00 40 1016.7
20260506190322 91 105 0.9 0.9 0.00 0.00 0.00 42 1016.8
20260506185819 92 240 3.5 5.2 0.00 0.00 0.00 40 1016.8
20260506185316 92 152 1.7 1.7 0.00 0.00 0.00 40 1016.8
20260506184813 92 38 0.0 0.9 0.00 0.00 0.00 40 1016.8
20260506184310 91 53 0.0 0.0 0.00 0.00 0.00 41 1016.9
20260506183807 90 114 0.9 0.9 0.00 0.00 0.00 42 1017.1
20260506183303 90 285 3.5 4.3 0.00 0.00 0.00 42 1017.0
20260506182800 91 238 4.3 6.1 0.00 0.00 0.00 40 1017.2
20260506182257 91 185 3.5 4.3 0.00 0.00 0.00 41 1017.2
20260506181755 92 253 4.3 6.1 0.00 0.00 0.00 41 1017.2
20260506181252 91 193 2.6 4.3 0.00 0.00 0.00 41 1017.4
20260506180749 90 11 1.7 2.6 0.00 0.00 0.00 42 1017.4
20260506180245 89 104 0.0 0.9 0.00 0.00 0.00 43 1017.6
20260506175742 91 220 2.6 2.6 0.00 0.00 0.00 44 1017.4
20260506175239 91 76 0.0 0.9 0.00 0.00 0.00 43 1017.3
20260506174736 90 48 1.7 2.6 0.00 0.00 0.00 43 1017.6
20260506174233 89 197 2.6 2.6 0.00 0.00 0.00 46 1017.5
20260506173731 89 273 3.5 5.2 0.00 0.00 0.00 44 1017.8
20260506173227 88 220 0.9 0.9 0.00 0.00 0.00 46 1017.7
20260506172724 89 245 4.3 7.0 0.00 0.00 0.00 43 1017.8
20260506172221 90 103 0.0 0.9 0.00 0.00 0.00 46 1018.0
20260506171718 88 219 0.0 0.0 0.00 0.00 0.00 47 1018.2
20260506171216 88 125 0.9 1.7 0.00 0.00 0.00 48 1017.9
20260506170713 87 183 0.9 0.9 0.00 0.00 0.00 48 1018.1
20260506170210 87 244 5.2 6.1 0.00 0.00 0.00 48 1018.4
20260506165708 87 262 1.7 2.6 0.00 0.00 0.00 49 1018.0
20260506165204 87 205 2.6 4.3 0.00 0.00 0.00 47 1018.3
20260506164702 87 163 1.7 1.7 0.00 0.00 0.00 48 1018.3
20260506164159 86 347 0.0 0.9 0.00 0.00 0.00 50 1018.4
20260506163655 87 256 0.9 1.7 0.00 0.00 0.00 50 1018.5
20260506163150 86 51 0.0 0.0 0.00 0.00 0.00 52 1018.3
20260506162647 86 225 1.7 2.6 0.00 0.00 0.00 51 1018.5
20260506162144 86 193 1.7 2.6 0.00 0.00 0.00 54 1018.7
20260506161641 85 191 0.9 1.7 0.00 0.00 0.00 52 1018.9
20260506161138 86 218 2.6 4.3 0.00 0.00 0.00 51 1018.7
20260506160636 85 235 6.1 7.8 0.00 0.00 0.00 51 1018.9
20260506160132 85 170 1.7 1.7 0.00 0.00 0.00 54 1018.9
20260506155631 85 229 5.2 6.1 0.00 0.00 0.00 54 1018.6
20260506155128 85 189 2.6 4.3 0.00 0.00 0.00 54 1019.0
20260506153225 84 130 0.0 0.9 0.00 0.00 0.00 57 1018.7
20260506152722 84 227 2.6 4.3 0.00 0.00 0.00 56 1018.7
20260506152219 83 203 1.7 1.7 0.00 0.00 0.00 57 1018.4
20260506151718 83 158 1.7 2.6 0.00 0.00 0.00 57 1018.8
20260506151214 83 215 2.6 2.6 0.00 0.00 0.00 58 1018.7
20260506150711 82 215 1.7 2.6 0.00 0.00 0.00 59 1018.7
20260506150208 82 231 2.6 2.6 0.00 0.00 0.00 59 1018.8
20260506145705 81 94 0.9 0.9 0.00 0.00 0.00 60 1018.6
20260506145201 81 90 0.9 0.9 0.00 0.00 0.00 61 1018.5
20260506144658 80 193 1.7 2.6 0.00 0.00 0.00 61 1018.6
20260506144155 80 198 0.9 0.9 0.00 0.00 0.00 62 1018.3
20260506143653 80 228 5.2 6.1 0.00 0.00 0.00 62 1018.3
20260506143151 80 225 2.6 4.3 0.00 0.00 0.00 63 1018.5
20260506142649 78 150 1.7 1.7 0.00 0.00 0.00 65 1018.3
20260506142146 78 234 3.5 6.1 0.00 0.00 0.00 65 1018.4
20260506141644 78 173 0.9 0.9 0.00 0.00 0.00 65 1018.5
20260506141142 78 147 0.9 0.9 0.00 0.00 0.00 66 1018.4
20260506140639 78 132 1.7 2.6 0.00 0.00 0.00 67 1018.4
20260506140137 77 210 1.7 2.6 0.00 0.00 0.00 68 1018.5
20260506135634 77 174 2.6 2.6 0.00 0.00 0.00 68 1018.4
20260506135130 77 208 0.9 1.7 0.00 0.00 0.00 68 1018.6
20260506134627 77 240 2.6 2.6 0.00 0.00 0.00 69 1018.6
20260506134122 76 189 0.9 0.9 0.00 0.00 0.00 70 1018.5
20260506133620 76 167 1.7 1.7 0.00 0.00 0.00 70 1018.7
20260506133117 76 206 0.9 0.9 0.00 0.00 0.00 71 1018.4
20260506132614 75 77 0.9 1.7 0.00 0.00 0.00 71 1018.6
20260506132111 75 205 0.9 1.7 0.00 0.00 0.00 71 1018.8
20260506131608 75 197 0.9 1.7 0.00 0.00 0.00 72 1018.5
20260506131104 74 189 0.9 1.7 0.00 0.00 0.00 73 1018.5
20260506130601 73 189 0.0 0.9 0.00 0.00 0.00 74 1018.5
20260506130058 73 191 2.6 2.6 0.00 0.00 0.00 72 1018.5
20260506125557 72 182 0.9 1.7 0.00 0.00 0.00 74 1018.5
20260506125054 71 247 0.0 0.9 0.00 0.00 0.00 76 1018.5
20260506124551 71 211 0.9 0.9 0.00 0.00 0.00 75 1018.2
20260506124049 70 128 0.9 0.9 0.00 0.00 0.00 76 1018.3
20260506123547 70 181 0.0 0.9 0.00 0.00 0.00 78 1018.1
20260506123046 69 172 0.9 0.9 0.00 0.00 0.00 78 1018.0
20260506122541 69 65 0.0 0.0 0.00 0.00 0.00 80 1018.2
20260506122040 68 50 0.0 0.0 0.00 0.00 0.00 80 1018.0
20260506121537 67 68 0.0 0.0 0.00 0.00 0.00 82 1017.9
20260506121033 66 76 0.0 0.0 0.00 0.00 0.00 84 1018.1
20260506120531 65 82 0.0 0.0 0.00 0.00 0.00 87 1017.5
20260506120028 64 70 0.0 0.0 0.00 0.00 0.00 89 1017.8
20260506115526 64 72 0.0 0.0 0.00 0.00 0.00 90 1017.7
20260506115025 64 74 0.0 0.0 0.00 0.00 0.00 91 1017.8
20260506114521 63 71 0.0 0.0 0.00 0.00 0.00 91 1017.8
20260506114020 63 71 0.0 0.0 0.00 0.00 0.00 92 1017.8
20260506113517 62 71 0.0 0.0 0.00 0.00 0.00 92 1017.6
20260506113014 62 71 0.0 0.0 0.00 0.00 0.00 92 1017.7
20260506112511 61 71 0.0 0.0 0.00 0.00 0.00 92 1017.6
20260506112009 61 71 0.0 0.0 0.00 0.00 0.00 92 1017.9
20260506111506 61 71 0.0 0.0 0.00 0.00 0.00 92 1017.7
20260506111003 60 71 0.0 0.0 0.00 0.00 0.00 92 1017.8
20260506110501 60 72 0.0 0.0 0.00 0.00 0.00 92 1017.9
20260506105957 60 72 0.0 0.0 0.00 0.00 0.00 92 1017.4
20260506105453 60 71 0.0 0.0 0.00 0.00 0.00 92 1017.5
20260506104951 60 71 0.0 0.0 0.00 0.00 0.00 92 1017.4
20260506104449 60 72 0.0 0.0 0.00 0.00 0.00 92 1017.4
20260506103947 61 73 0.0 0.0 0.00 0.00 0.00 92 1017.1
20260506103444 60 74 0.0 0.0 0.00 0.00 0.00 92 1017.2
20260506102941 60 74 0.0 0.0 0.00 0.00 0.00 91 1017.4
20260506102439 60 74 0.0 0.0 0.00 0.00 0.00 91 1017.1
20260506101936 61 74 0.0 0.0 0.00 0.00 0.00 91 1017.2
20260506101432 61 74 0.0 0.0 0.00 0.00 0.00 90 1016.9
20260506100930 61 75 0.0 0.0 0.00 0.00 0.00 90 1017.0
20260506100428 61 75 0.0 0.0 0.00 0.00 0.00 90 1017.4
20260506095925 61 72 0.0 0.0 0.00 0.00 0.00 90 1017.3
20260506095424 61 72 0.0 0.0 0.00 0.00 0.00 90 1017.3
20260506094920 61 71 0.0 0.0 0.00 0.00 0.00 90 1017.4
20260506094419 61 72 0.0 0.0 0.00 0.00 0.00 90 1017.3
20260506093916 61 71 0.0 0.0 0.00 0.00 0.00 90 1017.4
20260506093413 61 71 0.0 0.0 0.00 0.00 0.00 90 1017.4
20260506092911 61 71 0.0 0.0 0.00 0.00 0.00 89 1017.3
20260506092409 61 71 0.0 0.0 0.00 0.00 0.00 89 1017.0
20260506091905 61 71 0.0 0.0 0.00 0.00 0.00 89 1017.1
20260506091403 61 71 0.0 0.0 0.00 0.00 0.00 88 1016.8
20260506090900 62 72 0.0 0.0 0.00 0.00 0.00 88 1016.8
20260506090358 62 72 0.0 0.0 0.00 0.00 0.00 87 1016.6
20260506085854 62 72 0.0 0.0 0.00 0.00 0.00 87 1016.9
20260506085351 62 73 0.0 0.0 0.00 0.00 0.00 87 1016.8
20260506084847 62 71 0.0 0.0 0.00 0.00 0.00 87 1016.8
20260506084344 62 74 0.0 0.0 0.00 0.00 0.00 87 1017.1
20260506083841 62 72 0.0 0.0 0.00 0.00 0.00 87 1017.0
20260506083338 62 72 0.0 0.0 0.00 0.00 0.00 88 1017.0
20260506082836 62 72 0.0 0.0 0.00 0.00 0.00 88 1017.1
20260506082332 62 73 0.0 0.0 0.00 0.00 0.00 87 1017.0
20260506081828 62 73 0.0 0.0 0.00 0.00 0.00 87 1016.9
20260506081326 62 73 0.0 0.0 0.00 0.00 0.00 87 1016.8
20260506080823 62 71 0.0 0.0 0.00 0.00 0.00 88 1017.0
20260506080320 62 72 0.0 0.0 0.00 0.00 0.00 88 1017.0
20260506073304 62 72 0.0 0.0 0.00 0.00 0.00 87 1016.7
20260506072800 62 71 0.0 0.0 0.00 0.00 0.00 87 1016.7
20260506072258 62 72 0.0 0.0 0.00 0.00 0.00 87 1016.7
20260506071755 62 73 0.0 0.0 0.00 0.00 0.00 87 1016.7
20260506071253 62 73 0.0 0.0 0.00 0.00 0.00 87 1016.8
20260506070745 62 72 0.0 0.0 0.00 0.00 0.00 87 1017.0
20260506070243 62 72 0.0 0.0 0.00 0.00 0.00 87 1017.1
20260506062218 62 73 0.0 0.0 0.00 0.00 0.00 85 1017.4
20260506061714 62 73 0.0 0.0 0.00 0.00 0.00 85 1017.5
20260506061212 62 73 0.0 0.0 0.00 0.00 0.00 85 1017.4
20260506060710 62 76 0.0 0.0 0.00 0.00 0.00 85 1017.6
20260506060206 62 74 0.0 0.0 0.00 0.00 0.00 85 1017.8
20260506051139 62 74 0.0 0.0 0.00 0.00 0.00 85 1018.0
20260506050638 62 74 0.0 0.0 0.00 0.00 0.00 85 1017.9
20260506050134 63 74 0.0 0.0 0.00 0.00 0.00 85 1017.9
20260506045127 63 74 0.0 0.0 0.00 0.00 0.00 86 1018.2
20260506044625 63 74 0.0 0.0 0.00 0.00 0.00 86 1018.2
20260506044121 63 74 0.0 0.0 0.00 0.00 0.00 86 1018.1
20260506043619 63 74 0.0 0.0 0.00 0.00 0.00 84 1018.1
20260506043117 63 74 0.0 0.0 0.00 0.00 0.00 84 1018.4
20260506042615 63 74 0.0 0.0 0.00 0.00 0.00 83 1018.1
20260506042113 63 74 0.0 0.0 0.00 0.00 0.00 83 1018.3
20260506041612 63 74 0.0 0.0 0.00 0.00 0.00 82 1018.2
20260506041108 64 74 0.0 0.0 0.00 0.00 0.00 82 1018.2
20260506040606 64 74 0.0 0.0 0.00 0.00 0.00 82 1018.4
20260506035559 64 74 0.0 0.0 0.00 0.00 0.00 81 1018.4
20260506035055 64 74 0.0 0.0 0.00 0.00 0.00 81 1018.2
20260506034553 64 74 0.0 0.0 0.00 0.00 0.00 80 1018.4
20260506034050 65 74 0.0 0.0 0.00 0.00 0.00 80 1018.3
20260506033548 65 74 0.0 0.0 0.00 0.00 0.00 79 1018.1
20260506033044 65 74 0.0 0.0 0.00 0.00 0.00 79 1018.2
20260506032542 65 74 0.0 0.0 0.00 0.00 0.00 77 1018.2
20260506032038 66 74 0.0 0.0 0.00 0.00 0.00 76 1018.2
20260506031536 66 74 0.0 0.0 0.00 0.00 0.00 76 1018.0
20260506031032 66 74 0.0 0.0 0.00 0.00 0.00 75 1018.1
20260506030531 66 74 0.0 0.0 0.00 0.00 0.00 74 1018.0
20260506030028 67 74 0.0 0.0 0.00 0.00 0.00 74 1018.0
20260506025525 67 74 0.0 0.0 0.00 0.00 0.00 74 1017.9
20260506025021 67 75 0.0 0.0 0.00 0.00 0.00 74 1017.7
20260506024518 67 75 0.0 0.0 0.00 0.00 0.00 72 1018.0
20260506024014 68 74 0.0 0.0 0.00 0.00 0.00 71 1018.0
20260506023510 68 75 0.0 0.0 0.00 0.00 0.00 71 1018.0
20260506023008 68 76 0.0 0.0 0.00 0.00 0.00 70 1017.9
20260506022506 68 70 0.0 0.0 0.00 0.00 0.00 69 1017.9
20260506022003 69 70 0.0 0.0 0.00 0.00 0.00 68 1017.9
20260506021501 69 70 0.0 0.0 0.00 0.00 0.00 68 1017.5
20260506020957 70 70 0.0 0.0 0.00 0.00 0.00 67 1017.5
20260506020455 70 75 0.0 0.0 0.00 0.00 0.00 66 1017.5
20260506015951 70 65 0.0 0.0 0.00 0.00 0.00 66 1017.7
20260506015449 70 74 0.0 0.0 0.00 0.00 0.00 65 1017.6
20260506014946 71 117 0.0 0.9 0.00 0.00 0.00 65 1017.4
20260506014443 71 88 0.0 0.0 0.00 0.00 0.00 64 1017.4
20260506013939 71 75 0.0 0.0 0.00 0.00 0.00 64 1017.1
20260506013438 71 74 0.9 0.9 0.00 0.00 0.00 64 1017.1
20260506012933 71 85 0.9 0.9 0.00 0.00 0.00 63 1017.1
20260506012430 71 82 0.0 0.9 0.00 0.00 0.00 63 1016.9
20260506011927 72 80 0.0 0.0 0.00 0.00 0.00 62 1017.2
20260506011425 72 85 0.9 0.9 0.00 0.00 0.00 62 1017.1
20260506010921 72 93 0.9 0.9 0.00 0.00 0.00 61 1016.9
20260506010420 72 81 0.9 0.9 0.00 0.00 0.00 61 1016.9
20260506005916 72 73 0.0 0.0 0.00 0.00 0.00 61 1017.2
20260506005414 72 85 0.0 0.0 0.00 0.00 0.00 60 1017.1
20260506004909 73 86 0.9 0.9 0.00 0.00 0.00 59 1017.1
20260506004407 73 81 0.0 0.0 0.00 0.00 0.00 59 1017.0
20260506003903 73 77 0.9 0.9 0.00 0.00 0.00 58 1017.0
20260506003359 73 70 0.9 1.7 0.00 0.00 0.00 58 1017.1
20260506002856 73 81 1.7 2.6 0.00 0.00 0.00 57 1017.1
20260506002352 73 117 0.0 0.0 0.00 0.00 0.00 57 1017.1
20260506001848 74 98 0.9 0.9 0.00 0.00 0.00 56 1017.0
20260506001345 74 94 0.9 0.9 0.00 0.00 0.00 56 1016.9
20260506000841 74 103 0.9 0.9 0.00 0.00 0.00 55 1016.7
20260506000340 74 93 0.9 1.7 0.00 0.00 0.00 54 1016.7
20260505235836 75 85 0.0 0.0 0.00 0.00 0.00 54 1016.8
20260505235333 75 69 1.7 1.7 0.00 0.00 0.00 53 1016.5
20260505234830 75 80 0.0 0.9 0.00 0.00 0.00 53 1016.6
20260505234328 75 99 0.9 1.7 0.00 0.00 0.00 52 1016.5
20260505233825 76 81 0.0 0.9 0.00 0.00 0.00 51 1016.5
20260505233323 76 57 2.6 4.3 0.00 0.00 0.00 50 1016.5
20260505232820 77 70 0.0 0.9 0.00 0.00 0.00 49 1016.4
20260505232317 77 93 0.9 0.9 0.00 0.00 0.00 49 1016.5
20260505231814 77 87 0.9 0.9 0.00 0.00 0.00 49 1016.5
20260505231312 78 92 0.9 0.9 0.00 0.00 0.00 48 1016.5
20260505230810 78 81 0.9 0.9 0.00 0.00 0.00 47 1016.4
20260505230306 78 69 0.0 0.0 0.00 0.00 0.00 47 1016.4
20260505225803 78 73 1.7 1.7 0.00 0.00 0.00 47 1016.4
20260505225300 79 92 0.9 1.7 0.00 0.00 0.00 46 1016.2
20260505224755 79 108 0.9 0.9 0.00 0.00 0.00 46 1016.5
20260505224253 79 72 0.9 0.9 0.00 0.00 0.00 46 1016.4
20260505223750 79 97 0.9 1.7 0.00 0.00 0.00 46 1016.4
20260505223247 79 82 4.3 5.2 0.00 0.00 0.00 46 1016.3
20260505222743 80 98 2.6 2.6 0.00 0.00 0.00 45 1016.4
20260505222239 80 63 0.9 0.9 0.00 0.00 0.00 46 1016.3
20260505221736 80 101 0.9 0.9 0.00 0.00 0.00 46 1016.3
20260505221233 80 76 0.0 0.0 0.00 0.00 0.00 47 1016.3
20260505220730 80 107 3.5 4.3 0.00 0.00 0.00 47 1016.3
20260505220227 80 76 1.7 4.3 0.00 0.00 0.00 46 1016.2
20260505215725 81 91 2.6 5.2 0.00 0.00 0.00 45 1016.2
20260505215223 81 77 1.7 1.7 0.00 0.00 0.00 45 1016.3
20260505214720 81 73 1.7 1.7 0.00 0.00 0.00 44 1016.1
20260505214218 81 108 0.9 1.7 0.00 0.00 0.00 44 1016.3
20260505213715 81 66 2.6 2.6 0.00 0.00 0.00 44 1016.2
20260505213212 82 96 2.6 2.6 0.00 0.00 0.00 44 1016.0
20260505212708 82 65 0.9 1.7 0.00 0.00 0.00 43 1016.3
20260505212205 82 93 2.6 2.6 0.00 0.00 0.00 43 1016.3